TimeCET,TemperatureF,Dew PointF,Humidity,Sea Level PressureIn,VisibilityMPH,Wind Direction,Wind SpeedMPH,Gust SpeedMPH,PrecipitationIn,Events,Conditions,WindDirDegrees,DateUTC
1:00 AM,46,46,97,29.76,,ESE,6.7,,,,,110,2013-03-08 00:00:00
1:01 AM,46.4,46.4,100,29.74,-9999.0,ESE,6.9,-,N/A,,Unknown,110,2013-03-08 00:01:00
5:15 AM,46.4,46.4,100,29.71,6.2,ESE,5.8,-,N/A,,Overcast,110,2013-03-08 04:15:00
5:45 AM,46.4,46.4,100,29.71,5.0,SE,6.9,-,N/A,,Overcast,130,2013-03-08 04:45:00
6:00 AM,-9999,-9999,N/A,-9999,5.0,SE,6.9,-,N/A,,Overcast,130,2013-03-08 05:00:00
6:45 AM,46.4,46.4,100,29.71,5.0,ESE,4.6,-,N/A,,Overcast,120,2013-03-08 05:45:00
7:00 AM,47,46,93,29.72,5,ESE,4.5,,,,Partly Cloudy,120,2013-03-08 06:00:00
7:15 AM,46.4,46.4,100,29.71,6.2,ESE,5.8,-,N/A,,Overcast,120,2013-03-08 06:15:00
7:45 AM,48.2,46.4,93,29.71,6.2,ESE,4.6,-,N/A,,Mostly Cloudy,120,2013-03-08 06:45:00
8:15 AM,48.2,46.4,93,29.71,6.2,SE,4.6,-,N/A,,Overcast,130,2013-03-08 07:15:00
8:45 AM,50.0,48.2,94,29.71,6.2,SE,6.9,-,N/A,,Mostly Cloudy,130,2013-03-08 07:45:00
9:00 AM,-9999,-9999,N/A,-9999,-9999.0,South,10.4,-,N/A,Rain,Light Rain Showers,170,2013-03-08 08:00:00
9:15 AM,50.0,48.2,94,29.71,6.2,SSE,9.2,-,N/A,,Mostly Cloudy,150,2013-03-08 08:15:00
9:45 AM,51.8,50.0,94,29.71,6.2,SSE,9.2,-,N/A,,Mostly Cloudy,160,2013-03-08 08:45:00
10:15 AM,53.6,48.2,82,29.71,6.2,South,15.0,-,N/A,,Mostly Cloudy,180,2013-03-08 09:15:00
10:45 AM,55.4,48.2,77,29.71,6.2,South,12.7,-,N/A,,Mostly Cloudy,180,2013-03-08 09:45:00
11:15 AM,57.2,48.2,72,29.71,6.2,South,11.5,-,N/A,,Mostly Cloudy,170,2013-03-08 10:15:00
11:45 AM,57.2,50.0,77,29.71,6.2,South,10.4,-,N/A,,Mostly Cloudy,170,2013-03-08 10:45:00
12:00 PM,-9999,-9999,N/A,-9999,6.2,South,11.5,-,N/A,,Mostly Cloudy,170,2013-03-08 11:00:00
12:15 PM,57.2,50.0,77,29.68,6.2,South,11.5,-,N/A,,Mostly Cloudy,180,2013-03-08 11:15:00
12:45 PM,57.2,50.0,77,29.68,6.2,South,10.4,-,N/A,,Mostly Cloudy,170,2013-03-08 11:45:00
1:00 PM,58,51,70,29.68,12,South,11.2,,,,Partly Cloudy,170,2013-03-08 12:00:00
1:15 PM,57.2,51.8,82,29.68,6.2,South,10.4,-,N/A,Rain,Light Rain Showers,180,2013-03-08 12:15:00
2:15 PM,59.0,51.8,77,29.65,6.2,South,8.1,-,N/A,Rain,Light Rain Showers,190,2013-03-08 13:15:00
2:45 PM,59.0,51.8,77,29.65,6.2,SSW,3.5,-,N/A,Rain,Light Rain Showers,200,2013-03-08 13:45:00
3:15 PM,59.0,51.8,77,29.65,6.2,SE,2.3,-,N/A,Rain,Light Rain Showers,130,2013-03-08 14:15:00
3:45 PM,59.0,51.8,77,29.65,6.2,East,3.5,-,N/A,,Mostly Cloudy,90,2013-03-08 14:45:00
4:15 PM,57.2,51.8,82,29.65,6.2,East,4.6,-,N/A,,Mostly Cloudy,80,2013-03-08 15:15:00
4:45 PM,57.2,51.8,82,29.65,6.2,East,5.8,-,N/A,,Scattered Clouds,80,2013-03-08 15:45:00
6:00 PM,-9999,-9999,N/A,-9999,-9999.0,North,-9999.0,-,N/A,,Unknown,0,2013-03-08 17:00:00
7:00 PM,54,53,95,29.66,,North,6.7,,,,,10,2013-03-08 18:00:00